• In India
  • List of Countries
  • For 7 days
  • Water Temperature
  • Satellite Maps
  • Weather Map
  • Weather Widgets
  • user-avatar
    Login

    Hourly Weather Mayrhofen

    Today, 21 February, Wednesday

    Time Temperature Precipitation Wind Pressure Humidity
    00:00 -14°C° 0.1 mm 2 mps 608 mmHg 94%
    01:00 -12°C° 0.1 mm 1 mps 608 mmHg 94%
    02:00 -13°C° 0.1 mm 1 mps 608 mmHg 93%
    03:00 -13°C° 0.1 mm 1 mps 608 mmHg 93%
    04:00 -13°C° 0.1 mm 1 mps 608 mmHg 93%
    05:00 -15°C° 0.1 mm 2 mps 608 mmHg 92%
    06:00 -16°C° 0.1 mm 2 mps 608 mmHg 92%
    07:00 -16°C° 0.1 mm 2 mps 608 mmHg 92%
    08:00 -14°C° 0.1 mm 2 mps 609 mmHg 90%
    09:00 -12°C° 0.1 mm 2 mps 609 mmHg 88%
    10:00 -10°C° 0.1 mm 2 mps 610 mmHg 87%
    11:00 -9°C° 0.1 mm 2 mps 610 mmHg 85%
    12:00 -8°C° 0.1 mm 2 mps 610 mmHg 84%
    13:00 -7°C° 0.1 mm 2 mps 610 mmHg 83%
    14:00 -7°C° 0.1 mm 2 mps 610 mmHg 84%
    15:00 -7°C° 0.1 mm 2 mps 610 mmHg 85%
    16:00 -7°C° 0.1 mm 2 mps 609 mmHg 87%
    17:00 -8°C° 0.1 mm 2 mps 609 mmHg 89%
    18:00 -9°C° 0.1 mm 2 mps 609 mmHg 92%
    19:00 -10°C° 0.1 mm 2 mps 609 mmHg 94%
    20:00 -12°C° 0.1 mm 2 mps 609 mmHg 94%
    21:00 -12°C° 0.1 mm 2 mps 608 mmHg 94%
    22:00 -11°C° 0.1 mm 1 mps 608 mmHg 94%
    23:00 -11°C° 0.1 mm 1 mps 608 mmHg 94%

    Tomorrow, 22 February, Thursday

    Time Temperature Precipitation Wind Pressure Humidity
    00:00 -12°C° 0.1 mm 1 mps 608 mmHg 93%
    01:00 -12°C° 0.1 mm 1 mps 607 mmHg 93%
    02:00 -12°C° 0.1 mm 1 mps 607 mmHg 93%
    03:00 -12°C° 0.1 mm 1 mps 607 mmHg 92%
    04:00 -13°C° 0.1 mm 1 mps 606 mmHg 92%
    05:00 -12°C° 0.1 mm 1 mps 606 mmHg 92%
    06:00 -12°C° 0.1 mm 1 mps 606 mmHg 92%
    07:00 -12°C° 0.1 mm 1 mps 606 mmHg 91%
    08:00 -11°C° 0.1 mm 1 mps 607 mmHg 90%
    09:00 -9°C° 0.1 mm 1 mps 607 mmHg 89%
    10:00 -9°C° 0.1 mm 2 mps 608 mmHg 87%
    11:00 -8°C° 0.1 mm 2 mps 608 mmHg 87%
    12:00 -7°C° 0.1 mm 2 mps 608 mmHg 87%
    13:00 -6°C° 0.1 mm 2 mps 609 mmHg 86%
    14:00 -6°C° 0.1 mm 2 mps 608 mmHg 87%
    15:00 -6°C° 0.1 mm 2 mps 608 mmHg 87%
    16:00 -6°C° 0.1 mm 2 mps 608 mmHg 88%
    17:00 -6°C° 0.1 mm 1 mps 608 mmHg 90%
    18:00 -7°C° 0.1 mm 1 mps 608 mmHg 92%
    19:00 -8°C° 0.1 mm 1 mps 608 mmHg 94%
    20:00 -9°C° 0 mm 1 mps 607 mmHg 94%
    21:00 -9°C° 0 mm 1 mps 607 mmHg 94%
    22:00 -10°C° 0 mm 1 mps 607 mmHg 93%
    23:00 -10°C° 0 mm 1 mps 607 mmHg 93%

    Day after tomorrow, 23 February, Friday

    Time Temperature Precipitation Wind Pressure Humidity
    00:00 -11°C° 0 mm 1 mps 607 mmHg 92%
    01:00 -11°C° 0 mm 1 mps 607 mmHg 91%
    02:00 -11°C° 0 mm 1 mps 607 mmHg 90%
    03:00 -11°C° 0 mm 1 mps 606 mmHg 90%
    04:00 -11°C° 0 mm 1 mps 606 mmHg 89%
    05:00 -11°C° 0 mm 1 mps 606 mmHg 89%
    06:00 -11°C° 0 mm 1 mps 606 mmHg 89%
    07:00 -11°C° 0 mm 1 mps 606 mmHg 88%
    08:00 -9°C° 0.1 mm 1 mps 607 mmHg 87%
    09:00 -7°C° 0.1 mm 1 mps 608 mmHg 86%
    10:00 -6°C° 0.1 mm 1 mps 609 mmHg 85%
    11:00 -4°C° 0.1 mm 1 mps 609 mmHg 86%
    12:00 -3°C° 0.1 mm 1 mps 609 mmHg 87%
    13:00 -2°C° 0.1 mm 1 mps 610 mmHg 89%
    14:00 -2°C° 0.1 mm 1 mps 610 mmHg 89%
    15:00 -2°C° 0.1 mm 1 mps 610 mmHg 89%
    16:00 -2°C° 0.1 mm 1 mps 610 mmHg 89%
    17:00 -3°C° 0 mm 1 mps 609 mmHg 91%
    18:00 -4°C° 0 mm 1 mps 609 mmHg 92%
    19:00 -7°C° 0 mm 1 mps 609 mmHg 94%
    20:00 -7°C° 0 mm 1 mps 609 mmHg 92%
    21:00 -7°C° 0 mm 1 mps 609 mmHg 90%
    22:00 -7°C° 0 mm 1 mps 609 mmHg 88%
    23:00 -7°C° 0 mm 1 mps 609 mmHg 87%

    24 February, Saturday

    Time Temperature Precipitation Wind Pressure Humidity
    00:00 -7°C° 0 mm 1 mps 609 mmHg 85%
    01:00 -7°C° 0 mm 1 mps 609 mmHg 83%
    02:00 -7°C° 0 mm 1 mps 609 mmHg 83%
    03:00 -7°C° 0 mm 1 mps 609 mmHg 83%
    04:00 -7°C° 0 mm 1 mps 609 mmHg 83%
    05:00 -7°C° 0 mm 1 mps 609 mmHg 83%
    06:00 -7°C° 0 mm 1 mps 609 mmHg 83%
    07:00 -7°C° 0 mm 1 mps 610 mmHg 84%
    08:00 -4°C° 0 mm 1 mps 610 mmHg 85%
    09:00 -2°C° 0 mm 1 mps 611 mmHg 86%
    10:00 0°C° 0 mm 1 mps 612 mmHg 87%
    11:00 0°C° 0 mm 1 mps 612 mmHg 89%
    12:00 +1°C° 0 mm 1 mps 612 mmHg 92%
    13:00 +1°C° 0 mm 1 mps 612 mmHg 94%
    14:00 +1°C° 0.1 mm 1 mps 612 mmHg 94%
    15:00 0°C° 0.1 mm 1 mps 612 mmHg 94%
    16:00 0°C° 0.1 mm 1 mps 611 mmHg 94%
    17:00 -1°C° 0.2 mm 1 mps 611 mmHg 95%
    18:00 -2°C° 0.2 mm 1 mps 611 mmHg 96%
    19:00 -3°C° 0.2 mm 1 mps 611 mmHg 96%
    20:00 -4°C° 0.1 mm 1 mps 611 mmHg 96%
    21:00 -4°C° 0.1 mm 1 mps 611 mmHg 96%
    22:00 -6°C° 0.1 mm 1 mps 611 mmHg 96%
    23:00 -6°C° 0.2 mm 1 mps 611 mmHg 96%

    25 February, Sunday

    Time Temperature Precipitation Wind Pressure Humidity
    00:00 -6°C° 0.2 mm 1 mps 611 mmHg 96%
    01:00 -7°C° 0.2 mm 1 mps 611 mmHg 96%
    02:00 -7°C° 0.2 mm 1 mps 611 mmHg 96%
    03:00 -8°C° 0.2 mm 1 mps 610 mmHg 96%
    04:00 -9°C° 0.2 mm 1 mps 610 mmHg 95%
    05:00 -10°C° 0.2 mm 2 mps 610 mmHg 95%
    06:00 -12°C° 0.2 mm 2 mps 610 mmHg 95%
    07:00 -13°C° 0.2 mm 2 mps 610 mmHg 94%
    08:00 -12°C° 0.1 mm 2 mps 610 mmHg 93%
    09:00 -12°C° 0.1 mm 2 mps 611 mmHg 91%
    10:00 -12°C° 0.1 mm 3 mps 611 mmHg 90%
    11:00 -12°C° 0.1 mm 3 mps 611 mmHg 88%
    12:00 -12°C° 0.1 mm 3 mps 611 mmHg 86%
    13:00 -12°C° 0.1 mm 3 mps 611 mmHg 85%
    14:00 -13°C° 0.1 mm 3 mps 611 mmHg 85%
    15:00 -14°C° 0.1 mm 3 mps 611 mmHg 85%
    16:00 -15°C° 0.1 mm 3 mps 610 mmHg 85%
    17:00 -16°C° 0 mm 3 mps 610 mmHg 88%
    18:00 -18°C° 0 mm 3 mps 610 mmHg 90%
    19:00 -19°C° 0 mm 2 mps 610 mmHg 92%
    20:00 -20°C° 0 mm 2 mps 610 mmHg 92%
    21:00 -21°C° 0 mm 2 mps 609 mmHg 92%
    22:00 -23°C° 0 mm 2 mps 609 mmHg 92%
    23:00 -24°C° 0 mm 2 mps 609 mmHg 91%

    26 February, Monday

    Time Temperature Precipitation Wind Pressure Humidity
    00:00 -25°C° 0 mm 2 mps 609 mmHg 90%
    01:00 -25°C° 0 mm 2 mps 609 mmHg 89%
    02:00 -26°C° 0 mm 2 mps 608 mmHg 86%
    03:00 -26°C° 0 mm 2 mps 608 mmHg 84%
    04:00 -27°C° 0 mm 2 mps 608 mmHg 82%
    05:00 -27°C° 0 mm 2 mps 608 mmHg 81%
    06:00 -27°C° 0 mm 2 mps 607 mmHg 80%
    07:00 -27°C° 0 mm 2 mps 607 mmHg 79%
    08:00 -25°C° 0 mm 2 mps 608 mmHg 76%
    09:00 -21°C° 0 mm 2 mps 609 mmHg 74%
    10:00 -19°C° 0 mm 2 mps 610 mmHg 72%
    11:00 -18°C° 0 mm 2 mps 610 mmHg 72%
    12:00 -18°C° 0 mm 3 mps 610 mmHg 72%
    13:00 -17°C° 0 mm 3 mps 610 mmHg 71%
    14:00 -17°C° 0 mm 3 mps 610 mmHg 74%
    15:00 -18°C° 0 mm 3 mps 609 mmHg 77%
    16:00 -18°C° 0 mm 3 mps 609 mmHg 80%
    17:00 -19°C° 0 mm 2 mps 609 mmHg 83%
    18:00 -20°C° 0 mm 2 mps 608 mmHg 87%
    19:00 -23°C° 0 mm 2 mps 608 mmHg 91%
    20:00 -24°C° 0 mm 2 mps 607 mmHg 91%
    21:00 -22°C° 0 mm 1 mps 607 mmHg 91%
    22:00 -23°C° 0 mm 1 mps 607 mmHg 91%
    23:00 -23°C° 0 mm 1 mps 606 mmHg 90%
    Show more